Home   Weather   USA   Cleburne   Past weeks
Flag for USA

Past Weather in Cleburne, Texas, USA — Yesterday and Last 2 Weeks

Currently: 63 °F. Fog. (Weather station: Cleburne Municipal Airport, USA). See more current weather

Past Weather in Cleburne — Graph

°F

Cleburne Temperature Yesterday

Maximum temperature yesterday: 75 °F (at 11:15 am)
Minimum temperature yesterday: 63 °F (at 7:55 am)
Average temperature yesterday: 70 °F

High & Low Weather Summary for the Past Weeks

 TemperatureHumidityPressure
High81 °F (Nov 29, 2:35 pm)100% (Nov 24, 3:15 pm)30.48 "Hg (Nov 24, 3:15 pm)
Low32 °F (Nov 30, 7:15 am)25% (Nov 30, 2:15 pm)29.69 "Hg (Nov 29, 2:15 pm)
Average56 °F82%30.08 "Hg
* Reported Nov 24 3:15 pm — Dec 9 3:55 pm, Cleburne. Weather by CustomWeather, © 2022

Note: Actual official high and low records may vary slightly from our data, if they occured in-between our weather recording intervals... More about our weather records

Cleburne Weather History for the Previous 24 Hours

Scroll right to see more
 ConditionsComfort  
Time TempWeatherWind HumidityBarometerVisibility
3:55 pm
Fri, Dec 9
64 °FFog.10 mph100%30.06 "Hg3 mi
3:35 pm63 °FFog.12 mph100%30.06 "Hg2 mi
3:15 pm64 °FFog.10 mph100%30.06 "Hg2 mi
2:55 pm64 °FFog.9 mph100%30.07 "Hg2 mi
2:35 pm64 °FFog.8 mph100%30.08 "Hg3 mi
2:15 pm63 °FFog.9 mph100%30.09 "Hg3 mi
1:35 pm64 °FFog.9 mph100%30.10 "Hg2 mi
1:15 pm63 °FFog.10 mph100%30.11 "Hg2 mi
12:35 pm63 °FFog.7 mph100%30.13 "Hg2 mi
11:55 am63 °FFog.8 mph100%30.14 "Hg2 mi
11:35 am63 °FFog.8 mph100%30.16 "Hg2 mi
11:15 am63 °FFog.12 mph100%30.17 "Hg1 mi
10:55 am63 °FFog.8 mph100%30.17 "Hg1 mi
10:15 am64 °FFog.9 mph100%30.18 "Hg2 mi
9:55 am64 °FFog.7 mph100%30.17 "Hg0 mi
9:35 am64 °FFog.9 mph100%30.17 "Hg0 mi
9:15 am64 °FFog.10 mph100%30.17 "Hg0 mi
8:35 am64 °FFog.9 mph100%30.16 "Hg0 mi
8:15 am64 °FFog.10 mph100%30.15 "Hg0 mi
7:55 am64 °FFog.7 mph100%30.14 "Hg1 mi
7:35 am64 °FFog.6 mph100%30.14 "Hg1 mi
7:15 am64 °FFog.6 mph100%30.13 "Hg1 mi
6:55 am64 °FFog.7 mph100%30.13 "Hg1 mi
6:15 am63 °FFog.6 mph100%30.12 "Hg2 mi
5:55 am63 °FFog.No wind100%30.11 "Hg2 mi
5:35 am63 °FFog.No wind100%30.11 "Hg2 mi
5:15 am63 °FFog.No wind100%30.10 "Hg2 mi
4:55 am63 °FFog.3 mph100%30.10 "Hg2 mi
4:35 am64 °FFog.No wind100%30.11 "Hg3 mi
4:15 am64 °FFog.No wind100%30.11 "Hg3 mi
3:35 am63 °FFog.5 mph100%30.11 "Hg3 mi
3:15 am64 °FFog.3 mph100%30.11 "Hg4 mi
2:55 am64 °FFog.3 mph100%30.11 "Hg3 mi
2:35 am64 °FFog.No wind100%30.11 "Hg3 mi
2:15 am64 °FFog.No wind100%30.11 "Hg3 mi
1:15 am64 °FFog.No wind100%30.11 "Hg3 mi
12:55 am64 °FFog.5 mph100%30.11 "Hg2 mi
12:15 am64 °FFog.3 mph100%30.12 "Hg2 mi
11:35 pm
Thu, Dec 8
66 °FFog.No wind100%30.12 "Hg6 mi
11:15 pm66 °FFog.No wind100%30.12 "Hg5 mi
10:55 pm66 °FFog.No wind100%30.12 "Hg2 mi
10:35 pm66 °FFog.No wind100%30.12 "Hg3 mi
10:15 pm68 °FFog.No wind100%30.12 "Hg6 mi
9:55 pm68 °FFog.3 mph100%30.12 "Hg5 mi
9:35 pm68 °FFog.5 mph100%30.12 "Hg4 mi
9:15 pm68 °FFog.3 mph100%30.12 "Hg5 mi
8:55 pm68 °FFog.No wind100%30.12 "Hg5 mi
8:35 pm68 °FFog.3 mph100%30.12 "Hg5 mi
8:15 pm68 °FPartly cloudy.No wind100%30.12 "Hg7 mi
7:15 pm70 °FOvercast.5 mph100%30.11 "Hg8 mi
6:55 pm72 °FMostly cloudy.6 mph94%30.10 "Hg8 mi
5:35 pm72 °FFog.3 mph100%30.10 "Hg5 mi
5:15 pm72 °FFog.5 mph100%30.09 "Hg4 mi
Weather by CustomWeather, © 2022

See weather overview